Year,Month,Day,Hour,Minute,Value (Times are PST for windspeed in km/hr)
2022,04,04,00,00,10.80
2022,04,04,00,01,17.90
2022,04,04,00,02,21.90
2022,04,04,00,03,20.80
2022,04,04,00,04,18.70
2022,04,04,00,05,15.20
2022,04,04,00,06,22.90
2022,04,04,00,07,16.20
2022,04,04,00,08,16.70
2022,04,04,00,09,19.50
2022,04,04,00,10,25.40
2022,04,04,00,11,28.50
2022,04,04,00,12,22.00
2022,04,04,00,13,20.30
2022,04,04,00,14,25.10
2022,04,04,00,15,25.30
2022,04,04,00,16,23.20
2022,04,04,00,17,15.80
2022,04,04,00,18,20.60
2022,04,04,00,19,10.90
2022,04,04,00,20,13.90
2022,04,04,00,21,14.20
2022,04,04,00,22,19.30
2022,04,04,00,23,13.90
2022,04,04,00,24,29.60
2022,04,04,00,25,23.70
2022,04,04,00,26,23.20
2022,04,04,00,27,18.60
2022,04,04,00,28,18.70
2022,04,04,00,29,14.60
2022,04,04,00,30,10.60
2022,04,04,00,31,15.20
2022,04,04,00,32,11.80
2022,04,04,00,33,18.40
2022,04,04,00,34,19.00
2022,04,04,00,35,23.50
2022,04,04,00,36,22.40
2022,04,04,00,37,22.20
2022,04,04,00,38,22.90
2022,04,04,00,39,22.00
2022,04,04,00,40,18.50
2022,04,04,00,41,22.20
2022,04,04,00,42,14.70
2022,04,04,00,43,16.60
2022,04,04,00,44,20.40
2022,04,04,00,45,19.40
2022,04,04,00,46,22.00
2022,04,04,00,47,24.20
2022,04,04,00,48,28.50
2022,04,04,00,49,28.60
2022,04,04,00,50,25.10
2022,04,04,00,51,22.20
2022,04,04,00,52,27.10
2022,04,04,00,53,19.90
2022,04,04,00,54,16.10
2022,04,04,00,55,24.30
2022,04,04,00,56,18.30
2022,04,04,00,57,22.80
2022,04,04,00,58,21.20
2022,04,04,00,59,24.40
2022,04,04,01,00,19.50
2022,04,04,01,01,19.20
2022,04,04,01,02,22.80
2022,04,04,01,03,20.40
2022,04,04,01,04,17.10
2022,04,04,01,05,19.90
2022,04,04,01,06,17.30
2022,04,04,01,07,18.30
2022,04,04,01,08,20.60
2022,04,04,01,09,20.50
2022,04,04,01,10,26.40
2022,04,04,01,11,16.80
2022,04,04,01,12,21.80
2022,04,04,01,13,15.60
2022,04,04,01,14,22.60
2022,04,04,01,15,20.50
2022,04,04,01,16,20.20
2022,04,04,01,17,17.90
2022,04,04,01,18,28.20
2022,04,04,01,19,24.20
2022,04,04,01,20,16.50
2022,04,04,01,21,21.70
2022,04,04,01,22,20.30
2022,04,04,01,23,24.30
2022,04,04,01,24,25.70
2022,04,04,01,25,28.80
2022,04,04,01,26,24.40
2022,04,04,01,27,26.50
2022,04,04,01,28,24.70
2022,04,04,01,29,23.10
2022,04,04,01,30,20.50
2022,04,04,01,31,22.50
2022,04,04,01,32,22.50
2022,04,04,01,33,21.10
2022,04,04,01,34,22.90
2022,04,04,01,35,23.50
2022,04,04,01,36,23.90
2022,04,04,01,37,27.60
2022,04,04,01,38,32.50
2022,04,04,01,39,24.10
2022,04,04,01,40,24.90
2022,04,04,01,41,25.30
2022,04,04,01,42,27.20
2022,04,04,01,43,21.60
2022,04,04,01,44,23.30
2022,04,04,01,45,25.40
2022,04,04,01,46,23.40
2022,04,04,01,47,23.10
2022,04,04,01,48,23.70
2022,04,04,01,49,26.60
2022,04,04,01,50,25.30
2022,04,04,01,51,28.50
2022,04,04,01,52,22.00
2022,04,04,01,53,25.40
2022,04,04,01,54,24.70
2022,04,04,01,55,21.80
2022,04,04,01,56,24.80
2022,04,04,01,57,21.80
2022,04,04,01,58,23.80
2022,04,04,01,59,22.80
2022,04,04,02,00,29.40
2022,04,04,02,01,28.00
2022,04,04,02,02,17.60
2022,04,04,02,03,22.50
2022,04,04,02,04,21.40
2022,04,04,02,05,17.90
2022,04,04,02,06,21.00
2022,04,04,02,07,23.80
2022,04,04,02,08,26.70
2022,04,04,02,09,16.80
2022,04,04,02,10,20.40
2022,04,04,02,11,24.60
2022,04,04,02,12,25.50
2022,04,04,02,13,20.80
2022,04,04,02,14,23.60
2022,04,04,02,15,24.40
2022,04,04,02,16,28.40
2022,04,04,02,17,17.90
2022,04,04,02,18,23.70
2022,04,04,02,19,19.40
2022,04,04,02,20,22.90
2022,04,04,02,21,19.90
2022,04,04,02,22,14.10
2022,04,04,02,23,16.30
2022,04,04,02,24,20.60
2022,04,04,02,25,15.70
2022,04,04,02,26,18.50
2022,04,04,02,27,15.70
2022,04,04,02,28,17.40
2022,04,04,02,29,13.30
2022,04,04,02,30,10.20
2022,04,04,02,31,21.40
2022,04,04,02,32,18.30
2022,04,04,02,33,19.30
2022,04,04,02,34,13.30
2022,04,04,02,35,20.60
2022,04,04,02,36,19.20
2022,04,04,02,37,14.00
2022,04,04,02,38,20.60
2022,04,04,02,39,20.50
2022,04,04,02,40,21.80
2022,04,04,02,41,15.80
2022,04,04,02,42,20.90
2022,04,04,02,43,15.50
2022,04,04,02,44,16.30
2022,04,04,02,45,15.70
2022,04,04,02,46,22.30
2022,04,04,02,47,16.10
2022,04,04,02,48,16.00
2022,04,04,02,49,18.20
2022,04,04,02,50,18.70
2022,04,04,02,51,19.30
2022,04,04,02,52,23.10
2022,04,04,02,53,19.70
2022,04,04,02,54,22.30
2022,04,04,02,55,26.40
2022,04,04,02,56,24.90
2022,04,04,02,57,12.00
2022,04,04,02,58,12.80
2022,04,04,02,59,18.20
2022,04,04,03,00,19.00
2022,04,04,03,01,17.20
2022,04,04,03,02,15.70
2022,04,04,03,03,15.90
2022,04,04,03,04,14.30
2022,04,04,03,05,15.00
2022,04,04,03,06,19.70
2022,04,04,03,07,16.20
2022,04,04,03,08,14.30
2022,04,04,03,09,13.20
2022,04,04,03,10,13.70
2022,04,04,03,11,11.30
2022,04,04,03,12,13.20
2022,04,04,03,13,10.00
2022,04,04,03,14,9.60
2022,04,04,03,15,17.90
2022,04,04,03,16,14.40
2022,04,04,03,17,9.10
2022,04,04,03,18,10.20
2022,04,04,03,19,16.80
2022,04,04,03,20,12.10
2022,04,04,03,21,12.20
2022,04,04,03,22,11.40
2022,04,04,03,23,9.30
2022,04,04,03,24,11.50
2022,04,04,03,25,9.70
2022,04,04,03,26,11.30
2022,04,04,03,27,10.30
2022,04,04,03,28,9.00
2022,04,04,03,29,9.80
2022,04,04,03,30,13.50
2022,04,04,03,31,13.20
2022,04,04,03,32,10.80
2022,04,04,03,33,12.40
2022,04,04,03,34,19.30
2022,04,04,03,35,17.60
2022,04,04,03,36,18.70
2022,04,04,03,37,17.40
2022,04,04,03,38,14.60
2022,04,04,03,39,13.40
2022,04,04,03,40,15.20
2022,04,04,03,41,22.20
2022,04,04,03,42,19.70
2022,04,04,03,43,19.40
2022,04,04,03,44,18.30
2022,04,04,03,45,15.60
2022,04,04,03,46,18.80
2022,04,04,03,47,17.60
2022,04,04,03,48,12.90
2022,04,04,03,49,18.10
2022,04,04,03,50,19.30
2022,04,04,03,51,21.50
2022,04,04,03,52,24.10
2022,04,04,03,53,23.50
2022,04,04,03,54,20.80
2022,04,04,03,55,19.50
2022,04,04,03,56,24.70
2022,04,04,03,57,22.50
2022,04,04,03,58,20.00
2022,04,04,03,59,25.10
2022,04,04,04,00,27.90
2022,04,04,04,01,28.50
2022,04,04,04,02,29.70
2022,04,04,04,03,24.10
2022,04,04,04,04,27.10
2022,04,04,04,05,27.50
2022,04,04,04,06,21.90
2022,04,04,04,07,25.20
2022,04,04,04,08,26.80
2022,04,04,04,09,30.20
2022,04,04,04,10,33.20
2022,04,04,04,11,32.90
2022,04,04,04,12,24.80
2022,04,04,04,13,34.30
2022,04,04,04,14,38.60
2022,04,04,04,15,29.10
2022,04,04,04,16,28.70
2022,04,04,04,17,30.20
2022,04,04,04,18,27.20
2022,04,04,04,19,26.20
2022,04,04,04,20,26.70
2022,04,04,04,21,30.00
2022,04,04,04,22,27.10
2022,04,04,04,23,25.30
2022,04,04,04,24,26.90
2022,04,04,04,25,29.30
2022,04,04,04,26,27.60
2022,04,04,04,27,33.50
2022,04,04,04,28,26.40
2022,04,04,04,29,30.30
2022,04,04,04,30,29.40
2022,04,04,04,31,21.80
2022,04,04,04,32,26.30
2022,04,04,04,33,31.20
2022,04,04,04,34,30.60
2022,04,04,04,35,23.80
2022,04,04,04,36,28.80
2022,04,04,04,37,24.70
2022,04,04,04,38,28.80
2022,04,04,04,39,33.10
2022,04,04,04,40,25.90
2022,04,04,04,41,27.40
2022,04,04,04,42,27.40
2022,04,04,04,43,26.40
2022,04,04,04,44,25.80
2022,04,04,04,45,21.90
2022,04,04,04,46,23.90
2022,04,04,04,47,24.50
2022,04,04,04,48,24.80
2022,04,04,04,49,23.40
2022,04,04,04,50,20.60
2022,04,04,04,51,22.30
2022,04,04,04,52,22.80
2022,04,04,04,53,23.20
2022,04,04,04,54,20.20
2022,04,04,04,55,23.40
2022,04,04,04,56,20.40
2022,04,04,04,57,23.80
2022,04,04,04,58,23.00
2022,04,04,04,59,20.60
2022,04,04,05,00,22.80
2022,04,04,05,01,23.40
2022,04,04,05,02,24.20
2022,04,04,05,03,21.00
2022,04,04,05,04,21.60
2022,04,04,05,05,18.70
2022,04,04,05,06,21.20
2022,04,04,05,07,21.40
2022,04,04,05,08,25.00
2022,04,04,05,09,26.10
2022,04,04,05,10,28.20
2022,04,04,05,11,28.90
2022,04,04,05,12,29.20
2022,04,04,05,13,34.20
2022,04,04,05,14,31.70
2022,04,04,05,15,34.50
2022,04,04,05,16,27.90
2022,04,04,05,17,34.30
2022,04,04,05,18,34.40
2022,04,04,05,19,36.50
2022,04,04,05,20,48.50
2022,04,04,05,21,35.30
2022,04,04,05,22,28.90
2022,04,04,05,23,39.20
2022,04,04,05,24,31.20
2022,04,04,05,25,22.80
2022,04,04,05,26,34.50
2022,04,04,05,27,29.50
2022,04,04,05,28,27.00
2022,04,04,05,29,33.00
2022,04,04,05,30,30.80
2022,04,04,05,31,23.70
2022,04,04,05,32,31.30
2022,04,04,05,33,28.80
2022,04,04,05,34,22.70
2022,04,04,05,35,29.80
2022,04,04,05,36,29.70
2022,04,04,05,37,31.00
2022,04,04,05,38,35.60
2022,04,04,05,39,30.40
2022,04,04,05,40,33.70
2022,04,04,05,41,24.90
2022,04,04,05,42,32.60
2022,04,04,05,43,28.90
2022,04,04,05,44,32.80
2022,04,04,05,45,34.60
2022,04,04,05,46,32.40
2022,04,04,05,47,32.80
2022,04,04,05,48,27.30
2022,04,04,05,49,28.70
2022,04,04,05,50,30.30
2022,04,04,05,51,28.70
2022,04,04,05,52,31.20
2022,04,04,05,53,29.50
2022,04,04,05,54,26.70
2022,04,04,05,55,30.20
2022,04,04,05,56,32.40
2022,04,04,05,57,32.90
2022,04,04,05,58,29.50
2022,04,04,05,59,25.30
2022,04,04,06,00,23.70
2022,04,04,06,01,22.60
2022,04,04,06,02,24.70
2022,04,04,06,03,23.80
2022,04,04,06,04,24.60
2022,04,04,06,05,20.60
2022,04,04,06,06,28.80
2022,04,04,06,07,29.80
2022,04,04,06,08,31.10
2022,04,04,06,09,31.10
2022,04,04,06,10,30.60
2022,04,04,06,11,26.30
2022,04,04,06,12,24.90
2022,04,04,06,13,26.30
2022,04,04,06,14,26.30
2022,04,04,06,15,25.70
2022,04,04,06,16,28.50
2022,04,04,06,17,26.60
2022,04,04,06,18,23.90
2022,04,04,06,19,26.40
2022,04,04,06,20,23.90
2022,04,04,06,21,26.80
2022,04,04,06,22,24.50
2022,04,04,06,23,23.90
2022,04,04,06,24,27.20
2022,04,04,06,25,29.80
2022,04,04,06,26,26.50
2022,04,04,06,27,28.50
2022,04,04,06,28,26.70
2022,04,04,06,29,27.40
2022,04,04,06,30,27.40
2022,04,04,06,31,27.40
2022,04,04,06,32,27.40
2022,04,04,06,33,27.40
2022,04,04,06,34,27.40
2022,04,04,06,35,27.40
2022,04,04,06,36,27.40
2022,04,04,06,37,27.40
2022,04,04,06,38,27.40
2022,04,04,08,02,30.60
2022,04,04,08,03,26.80
2022,04,04,08,04,27.50
2022,04,04,08,05,28.30
2022,04,04,08,06,30.00
2022,04,04,08,07,31.20
2022,04,04,08,08,30.80
2022,04,04,08,09,28.30
2022,04,04,08,10,28.10
2022,04,04,08,11,25.20
2022,04,04,08,12,25.40
2022,04,04,08,13,31.70
2022,04,04,08,14,27.80
2022,04,04,08,15,26.00
2022,04,04,08,16,24.20
2022,04,04,08,17,33.00
2022,04,04,08,18,29.30
2022,04,04,08,19,32.90
2022,04,04,08,20,34.60
2022,04,04,08,21,31.00
2022,04,04,08,22,33.20
2022,04,04,08,23,34.30
2022,04,04,08,24,25.40
2022,04,04,08,25,38.90
2022,04,04,08,26,33.60
2022,04,04,08,27,28.80
2022,04,04,08,28,9.80
2022,04,04,08,29,5.30
2022,04,04,08,30,9.60
2022,04,04,08,31,12.70
2022,04,04,08,32,9.90
2022,04,04,08,33,9.10
2022,04,04,08,34,6.00
2022,04,04,08,35,7.60
2022,04,04,08,36,9.00
2022,04,04,08,37,9.10
2022,04,04,08,38,14.20
2022,04,04,08,39,12.30
2022,04,04,08,40,8.70
2022,04,04,08,41,7.50
2022,04,04,08,42,9.10
2022,04,04,08,43,11.20
2022,04,04,08,44,8.10
2022,04,04,08,45,7.10
2022,04,04,08,46,11.90
2022,04,04,08,47,11.40
2022,04,04,08,48,12.00
2022,04,04,08,49,8.20
2022,04,04,08,50,9.00
2022,04,04,08,51,11.70
2022,04,04,08,52,11.30
2022,04,04,08,53,8.90
2022,04,04,08,54,11.50
2022,04,04,08,55,9.20
2022,04,04,08,56,9.60
2022,04,04,08,57,10.60
2022,04,04,08,58,10.80
2022,04,04,08,59,8.30
2022,04,04,09,00,11.00
2022,04,04,09,01,9.40
2022,04,04,09,02,12.50
2022,04,04,09,03,9.60
2022,04,04,09,04,9.40
2022,04,04,09,05,9.10
2022,04,04,09,06,9.70
2022,04,04,09,07,11.20
2022,04,04,09,08,14.60
2022,04,04,09,09,11.90
2022,04,04,09,10,13.90
2022,04,04,09,11,14.90
2022,04,04,09,12,15.90
2022,04,04,09,13,13.10
2022,04,04,09,14,11.50
2022,04,04,09,15,12.20
2022,04,04,09,16,9.70
2022,04,04,09,17,12.80
2022,04,04,09,18,13.20
2022,04,04,09,19,20.10
2022,04,04,09,20,18.50
2022,04,04,09,21,19.20
2022,04,04,09,22,21.80
2022,04,04,09,23,18.60
2022,04,04,09,24,11.90
2022,04,04,09,25,14.90
2022,04,04,09,26,14.80
2022,04,04,09,27,16.20
2022,04,04,09,28,12.60
2022,04,04,09,29,14.40
2022,04,04,09,30,13.10
2022,04,04,09,31,8.20
2022,04,04,09,32,8.60
2022,04,04,09,33,13.70
2022,04,04,09,34,13.60
2022,04,04,09,35,12.70
2022,04,04,09,36,9.70
2022,04,04,09,37,6.70
2022,04,04,09,38,5.10
2022,04,04,09,39,11.10
2022,04,04,09,40,7.80
2022,04,04,09,41,12.10
2022,04,04,09,42,9.20
2022,04,04,09,43,7.70
2022,04,04,09,44,8.20
2022,04,04,09,45,9.10
2022,04,04,09,46,9.90
2022,04,04,09,47,7.60
2022,04,04,09,48,8.90
2022,04,04,09,49,12.60
2022,04,04,09,50,12.90
2022,04,04,09,51,13.00
2022,04,04,09,52,16.50
2022,04,04,09,53,18.50
2022,04,04,09,54,11.50
2022,04,04,09,55,11.50
2022,04,04,09,56,8.70
2022,04,04,09,57,14.00
2022,04,04,09,58,11.20
2022,04,04,09,59,9.40
2022,04,04,10,00,10.30
2022,04,04,10,01,6.10
2022,04,04,10,02,10.00
2022,04,04,10,03,10.00
2022,04,04,10,04,11.50
2022,04,04,10,05,13.20
2022,04,04,10,06,13.20
2022,04,04,10,07,13.60
2022,04,04,10,08,8.70
2022,04,04,10,09,9.10
2022,04,04,10,10,6.90
2022,04,04,10,11,6.80
2022,04,04,10,12,4.10
2022,04,04,10,13,5.50
2022,04,04,10,14,9.70
2022,04,04,10,15,8.00
2022,04,04,10,16,11.30
2022,04,04,10,17,8.10
2022,04,04,10,18,9.30
2022,04,04,10,19,8.10
2022,04,04,10,20,9.10
2022,04,04,10,21,9.10
2022,04,04,10,22,15.60
2022,04,04,10,23,9.40
2022,04,04,10,24,8.30
2022,04,04,10,25,7.80
2022,04,04,10,26,13.50
2022,04,04,10,27,12.80
2022,04,04,10,28,8.20
2022,04,04,10,29,8.60
2022,04,04,10,30,9.20
2022,04,04,10,31,9.20
2022,04,04,10,32,10.40
2022,04,04,10,33,10.20
2022,04,04,10,34,11.60
2022,04,04,10,35,10.10
2022,04,04,10,36,14.30
2022,04,04,10,37,11.50
2022,04,04,10,38,12.60
2022,04,04,10,39,5.30
2022,04,04,10,40,13.30
2022,04,04,10,41,8.30
2022,04,04,10,42,9.70
2022,04,04,10,43,9.90
2022,04,04,10,44,10.80
2022,04,04,10,45,12.50
2022,04,04,10,46,13.70
2022,04,04,10,47,7.80
2022,04,04,10,48,11.30
2022,04,04,10,49,7.50
2022,04,04,10,50,6.40
2022,04,04,10,51,6.90
2022,04,04,10,52,5.80
2022,04,04,10,53,11.60
2022,04,04,10,54,7.90
2022,04,04,10,55,7.50
2022,04,04,10,56,7.70
2022,04,04,10,57,7.90
2022,04,04,10,58,9.10
2022,04,04,10,59,10.70
2022,04,04,11,00,9.30
2022,04,04,11,01,12.30
2022,04,04,11,02,7.80
2022,04,04,11,03,14.30
2022,04,04,11,04,9.00
2022,04,04,11,05,12.80
2022,04,04,11,06,15.50
2022,04,04,11,07,13.40
2022,04,04,11,08,14.70
2022,04,04,11,09,13.80
2022,04,04,11,10,12.10
2022,04,04,11,11,13.00
2022,04,04,11,12,12.90
2022,04,04,11,13,9.40
2022,04,04,11,14,10.70
2022,04,04,11,15,14.20
2022,04,04,11,16,11.30
2022,04,04,11,17,9.50
2022,04,04,11,18,14.30
2022,04,04,11,19,17.40
2022,04,04,11,20,15.60
2022,04,04,11,21,9.30
2022,04,04,11,22,15.10
2022,04,04,11,23,13.50
2022,04,04,11,24,12.20
2022,04,04,11,25,16.40
2022,04,04,11,26,12.40
2022,04,04,11,27,14.40
2022,04,04,11,28,8.50
2022,04,04,11,29,13.40
2022,04,04,11,30,14.10
2022,04,04,11,31,10.40
2022,04,04,11,32,10.50
2022,04,04,11,33,12.40
2022,04,04,11,34,11.10
2022,04,04,11,35,11.10
2022,04,04,11,36,10.60
2022,04,04,11,37,12.10
2022,04,04,11,38,16.60
2022,04,04,11,39,13.40
2022,04,04,11,40,6.70
2022,04,04,11,41,15.50
2022,04,04,11,42,15.50
2022,04,04,11,43,8.90
2022,04,04,11,44,10.20
2022,04,04,11,45,15.90
2022,04,04,11,46,16.20
2022,04,04,11,47,21.90
2022,04,04,11,48,14.70
2022,04,04,11,49,17.80
2022,04,04,11,50,14.60
2022,04,04,11,51,19.30
2022,04,04,11,52,19.00
2022,04,04,11,53,13.50
2022,04,04,11,54,12.70
2022,04,04,11,55,15.80
2022,04,04,11,56,11.00
2022,04,04,11,57,11.40
2022,04,04,11,58,11.20
2022,04,04,11,59,11.50
2022,04,04,12,00,11.30
2022,04,04,12,01,8.40
2022,04,04,12,02,8.70
2022,04,04,12,03,17.80
2022,04,04,12,04,14.70
2022,04,04,12,05,16.60
2022,04,04,12,06,15.80
2022,04,04,12,07,10.70
2022,04,04,12,08,9.40
2022,04,04,12,09,9.60
2022,04,04,12,10,12.00
2022,04,04,12,11,11.30
2022,04,04,12,12,8.40
2022,04,04,12,13,21.10
2022,04,04,12,14,16.10
2022,04,04,12,15,22.90
2022,04,04,12,16,31.10
2022,04,04,12,17,30.80
2022,04,04,12,18,22.40
2022,04,04,12,19,17.30
2022,04,04,12,20,15.00
2022,04,04,12,21,16.20
2022,04,04,12,22,16.60
2022,04,04,12,23,19.20
2022,04,04,12,24,24.80
2022,04,04,12,25,27.00
2022,04,04,12,26,22.50
2022,04,04,12,27,23.30
2022,04,04,12,28,21.30
2022,04,04,12,29,21.60
2022,04,04,12,30,25.20
2022,04,04,12,31,23.70
2022,04,04,12,32,25.10
2022,04,04,12,33,23.30
2022,04,04,12,34,21.10
2022,04,04,12,35,24.90
2022,04,04,12,36,26.60
2022,04,04,12,37,22.80
2022,04,04,12,38,20.60
2022,04,04,12,39,21.30
2022,04,04,12,40,22.50
2022,04,04,12,41,24.90
2022,04,04,12,42,23.20
2022,04,04,12,43,21.80
2022,04,04,12,44,21.50
2022,04,04,12,45,21.30
2022,04,04,12,46,23.30
2022,04,04,12,47,25.50
2022,04,04,12,48,31.10
2022,04,04,12,49,29.70
2022,04,04,12,50,30.70
2022,04,04,12,51,33.30
2022,04,04,12,52,34.60
2022,04,04,12,53,36.20
2022,04,04,12,54,31.50
2022,04,04,12,55,20.50
2022,04,04,12,56,33.20
2022,04,04,12,57,37.40
2022,04,04,12,58,35.20
2022,04,04,12,59,35.40
2022,04,04,13,00,30.70
2022,04,04,13,01,23.80
2022,04,04,13,02,23.90
2022,04,04,13,03,21.40
2022,04,04,13,04,18.50
2022,04,04,13,05,25.20
2022,04,04,13,06,27.80
2022,04,04,13,07,29.50
2022,04,04,13,08,25.30
2022,04,04,13,09,21.20
2022,04,04,13,10,20.00
2022,04,04,13,11,27.30
2022,04,04,13,12,27.50
2022,04,04,13,13,23.80
2022,04,04,13,14,26.20
2022,04,04,13,15,26.20
2022,04,04,13,16,29.70
2022,04,04,13,17,20.40
2022,04,04,13,18,25.30
2022,04,04,13,19,29.10
2022,04,04,13,20,28.10
2022,04,04,13,21,25.30
2022,04,04,13,22,25.70
2022,04,04,13,23,20.80
2022,04,04,13,24,22.40
2022,04,04,13,25,23.10
2022,04,04,13,26,23.90
2022,04,04,13,27,23.30
2022,04,04,13,28,21.60
2022,04,04,13,29,20.10
2022,04,04,13,30,21.40
2022,04,04,13,31,20.90
2022,04,04,13,32,22.40
2022,04,04,13,33,21.10
2022,04,04,13,34,23.20
2022,04,04,13,35,24.20
2022,04,04,13,36,22.50
2022,04,04,13,37,19.30
2022,04,04,13,38,21.80
2022,04,04,13,39,22.50
2022,04,04,13,40,20.20
2022,04,04,13,41,23.60
2022,04,04,13,42,25.10
2022,04,04,13,43,22.10
2022,04,04,13,44,22.10
2022,04,04,13,45,23.60
2022,04,04,13,46,18.40
2022,04,04,13,47,24.80
2022,04,04,13,48,26.30
2022,04,04,13,49,31.60
2022,04,04,13,50,32.30
2022,04,04,13,51,37.10
2022,04,04,13,52,35.20
2022,04,04,13,53,34.20
2022,04,04,13,54,32.00
2022,04,04,13,55,30.90
2022,04,04,13,56,30.80
2022,04,04,13,57,31.30
2022,04,04,13,58,34.40
2022,04,04,13,59,22.80
2022,04,04,14,00,27.90
2022,04,04,14,01,21.30
2022,04,04,14,02,25.20
2022,04,04,14,03,30.30
2022,04,04,14,04,35.70
2022,04,04,14,05,31.20
2022,04,04,14,06,34.20
2022,04,04,14,07,28.40
2022,04,04,14,08,42.20
2022,04,04,14,09,47.80
2022,04,04,14,10,42.00
2022,04,04,14,11,28.20
2022,04,04,14,12,22.00
2022,04,04,14,13,32.10
2022,04,04,14,14,25.10
2022,04,04,14,15,28.00
2022,04,04,14,16,25.20
2022,04,04,14,17,26.00
2022,04,04,14,18,28.10
2022,04,04,14,19,27.30
2022,04,04,14,20,25.80
2022,04,04,14,21,24.80
2022,04,04,14,22,33.30
2022,04,04,14,23,28.90
2022,04,04,14,24,29.00
2022,04,04,14,25,26.40
2022,04,04,14,26,31.20
2022,04,04,14,27,30.00
2022,04,04,14,28,30.30
2022,04,04,14,29,41.70
2022,04,04,14,30,36.30
2022,04,04,14,31,33.50
2022,04,04,14,32,31.10
2022,04,04,14,33,33.30
2022,04,04,14,34,33.20
2022,04,04,14,35,33.60
2022,04,04,14,36,34.10
2022,04,04,14,37,34.20
2022,04,04,14,38,34.40
2022,04,04,14,39,33.80
2022,04,04,14,40,35.50
2022,04,04,14,41,33.10
2022,04,04,14,42,38.60
2022,04,04,14,43,38.50
2022,04,04,14,44,39.60
2022,04,04,14,45,38.30
2022,04,04,14,46,34.50
2022,04,04,14,47,33.00
2022,04,04,14,48,28.00
2022,04,04,14,49,26.30
2022,04,04,14,50,29.50
2022,04,04,14,51,29.50
2022,04,04,14,52,28.50
2022,04,04,14,53,30.60
2022,04,04,14,54,30.60
2022,04,04,14,55,29.90
2022,04,04,14,56,35.40
2022,04,04,14,57,33.90
2022,04,04,14,58,34.10
2022,04,04,14,59,36.90
2022,04,04,15,00,37.40
2022,04,04,15,01,32.60
2022,04,04,15,02,32.00
2022,04,04,15,03,34.70
2022,04,04,15,04,33.80
2022,04,04,15,05,36.60
2022,04,04,15,06,33.70
2022,04,04,15,07,34.90
2022,04,04,15,08,41.20
2022,04,04,15,09,43.40
2022,04,04,15,10,43.70
2022,04,04,15,11,42.20
2022,04,04,15,12,37.90
2022,04,04,15,13,40.70
2022,04,04,15,14,35.70
2022,04,04,15,15,35.20
2022,04,04,15,16,35.90
2022,04,04,15,17,33.40
2022,04,04,15,18,35.60
2022,04,04,15,19,37.50
2022,04,04,15,20,39.10
2022,04,04,15,21,37.70
2022,04,04,15,22,34.70
2022,04,04,15,23,45.90
2022,04,04,15,24,45.60
2022,04,04,15,25,62.50
2022,04,04,15,26,51.00
2022,04,04,15,27,53.00
2022,04,04,15,28,56.90
2022,04,04,15,29,55.60
2022,04,04,15,30,54.20
2022,04,04,15,31,52.50
2022,04,04,15,32,52.70
2022,04,04,15,33,43.90
2022,04,04,15,34,48.90
2022,04,04,15,35,48.30
2022,04,04,15,36,46.80
2022,04,04,15,37,36.90
2022,04,04,15,38,40.60
2022,04,04,15,39,37.60
2022,04,04,15,40,38.80
2022,04,04,15,41,35.80
2022,04,04,15,42,37.20
2022,04,04,15,43,43.50
2022,04,04,15,44,37.90
2022,04,04,15,45,42.60
2022,04,04,15,46,41.70
2022,04,04,15,47,33.80
2022,04,04,15,48,37.90
2022,04,04,15,49,44.60
2022,04,04,15,50,38.00
2022,04,04,15,51,34.90
2022,04,04,15,52,28.90
2022,04,04,15,53,29.70
2022,04,04,15,54,34.90
2022,04,04,15,55,43.70
2022,04,04,15,56,39.10
2022,04,04,15,57,37.00
2022,04,04,15,58,36.40
2022,04,04,15,59,34.30
2022,04,04,16,00,33.30
2022,04,04,16,01,28.90
2022,04,04,16,02,24.40
2022,04,04,16,03,34.30
2022,04,04,16,04,36.60
2022,04,04,16,05,38.70
2022,04,04,16,06,33.10
2022,04,04,16,07,34.20
2022,04,04,16,08,37.40
2022,04,04,16,09,41.30
2022,04,04,16,10,45.00
2022,04,04,16,11,43.40
2022,04,04,16,12,43.70
2022,04,04,16,13,45.00
2022,04,04,16,14,44.50
2022,04,04,16,15,39.20
2022,04,04,16,16,38.70
2022,04,04,16,17,42.20
2022,04,04,16,18,36.70
2022,04,04,16,19,35.40
2022,04,04,16,20,33.60
2022,04,04,16,21,30.90
2022,04,04,16,22,36.80
2022,04,04,16,23,38.80
2022,04,04,16,24,41.00
2022,04,04,16,25,34.40
2022,04,04,16,26,31.80
2022,04,04,16,27,34.30
2022,04,04,16,28,36.90
2022,04,04,16,29,35.10
2022,04,04,16,30,39.30
2022,04,04,16,31,38.60
2022,04,04,16,32,38.40
2022,04,04,16,33,45.90
2022,04,04,16,34,39.00
2022,04,04,16,35,33.30
2022,04,04,16,36,36.70
2022,04,04,16,37,42.00
2022,04,04,16,38,47.20
2022,04,04,16,39,45.60
2022,04,04,16,40,40.60
2022,04,04,16,41,38.80
2022,04,04,16,42,39.30
2022,04,04,16,43,39.20
2022,04,04,16,44,37.40
2022,04,04,16,45,40.00
2022,04,04,16,46,43.50
2022,04,04,16,47,41.50
2022,04,04,16,48,42.10
2022,04,04,16,49,39.10
2022,04,04,16,50,37.90
2022,04,04,16,51,34.80
2022,04,04,16,52,41.80
2022,04,04,16,53,37.90
2022,04,04,16,54,43.60
2022,04,04,16,55,46.70
2022,04,04,16,56,47.00
2022,04,04,16,57,47.70
2022,04,04,16,58,42.00
2022,04,04,16,59,43.80
2022,04,04,17,00,41.20
2022,04,04,17,01,41.80
2022,04,04,17,02,37.60
2022,04,04,17,03,37.30
2022,04,04,17,04,39.00
2022,04,04,17,05,39.90
2022,04,04,17,06,45.60
2022,04,04,17,07,37.70
2022,04,04,17,08,44.50
2022,04,04,17,09,33.30
2022,04,04,17,10,38.30
2022,04,04,17,11,40.40
2022,04,04,17,12,29.80
2022,04,04,17,13,36.20
2022,04,04,17,14,38.70
2022,04,04,17,15,42.10
2022,04,04,17,16,35.60
2022,04,04,17,17,31.90
2022,04,04,17,18,33.10
2022,04,04,17,19,32.30
2022,04,04,17,20,39.20
2022,04,04,17,21,42.10
2022,04,04,17,22,44.20
2022,04,04,17,23,32.10
2022,04,04,17,24,35.00
2022,04,04,17,25,27.10
2022,04,04,17,26,31.60
2022,04,04,17,27,37.80
2022,04,04,17,28,32.30
2022,04,04,17,29,35.50
2022,04,04,17,30,32.80
2022,04,04,17,31,27.50
2022,04,04,17,32,32.50
2022,04,04,17,33,33.80
2022,04,04,17,34,33.00
2022,04,04,17,35,28.40
2022,04,04,17,36,30.30
2022,04,04,17,37,29.90
2022,04,04,17,38,28.00
2022,04,04,17,39,33.20
2022,04,04,17,40,32.00
2022,04,04,17,41,31.40
2022,04,04,17,42,33.30
2022,04,04,17,43,32.20
2022,04,04,17,44,26.90
2022,04,04,17,45,30.90
2022,04,04,17,46,29.00
2022,04,04,17,47,38.30
2022,04,04,17,48,41.00
2022,04,04,17,49,32.40
2022,04,04,17,50,30.90
2022,04,04,17,51,30.60
2022,04,04,17,52,33.10
2022,04,04,17,53,29.00
2022,04,04,17,54,30.20
2022,04,04,17,55,31.00
2022,04,04,17,56,27.80
2022,04,04,17,57,26.40
2022,04,04,17,58,23.60
2022,04,04,17,59,28.30
2022,04,04,18,00,34.70
2022,04,04,18,01,29.50
2022,04,04,18,02,26.80
2022,04,04,18,03,32.90
2022,04,04,18,04,36.80
2022,04,04,18,05,34.70
2022,04,04,18,06,36.40
2022,04,04,18,07,30.20
2022,04,04,18,08,28.80
2022,04,04,18,09,33.90
2022,04,04,18,10,33.70
2022,04,04,18,11,36.40
2022,04,04,18,12,27.70
2022,04,04,18,13,30.90
2022,04,04,18,14,33.60
2022,04,04,18,15,35.00
2022,04,04,18,16,35.00
2022,04,04,18,17,37.40
2022,04,04,18,18,33.60
2022,04,04,18,19,33.00
2022,04,04,18,20,32.30
2022,04,04,18,21,33.20
2022,04,04,18,22,30.90
2022,04,04,18,23,38.80
2022,04,04,18,24,38.40
2022,04,04,18,25,41.30
2022,04,04,18,26,47.70
2022,04,04,18,27,38.00
2022,04,04,18,28,36.90
2022,04,04,18,29,37.60
2022,04,04,18,30,37.20
2022,04,04,18,31,37.10
2022,04,04,18,32,34.10
2022,04,04,18,33,34.80
2022,04,04,18,34,39.70
2022,04,04,18,35,33.60
2022,04,04,18,36,33.10
2022,04,04,18,37,36.70
2022,04,04,18,38,37.20
2022,04,04,18,39,35.90
2022,04,04,18,40,40.70
2022,04,04,18,41,39.90
2022,04,04,18,42,42.50
2022,04,04,18,43,43.80
2022,04,04,18,44,37.50
2022,04,04,18,45,43.10
2022,04,04,18,46,39.10